[[{"header":{"parameterUnit":"m.s-1","parameterCategory":1,"la1":30.2991,"la2":30.254,"lo1":-89.0895,"lo2":-89.0444,"dy":0.0017,"dx":0.0017,"nx":28,"ny":28,"refTime":"2024-11-26T09:00:00:Z","depth":0,"parameterNumber":2,"parameterNumberName":"U-component_of_WINDS"},"data":[0,0,0,0,0,0,0,0,0,0,0,0,0,0,0,0,0,0,0,0,0,0,0,0,0,0,0,0,0,0,0,0,0,0,0,0,0,0,0,0,0,0,0,0,0,0,0,0,0,0,0,0,0,0,0,0,0,0,-1.3403,-1.3404,0,-1.3494,-1.3495,-1.3496,-1.3508,-1.3507,-1.3506,-1.3506,-1.36,-1.3604,-1.3607,0,0,0,0,0,0,0,0,0,0,0,0,0,-1.3241,-1.3244,-1.3403,-1.3404,-1.3405,-1.3494,-1.3495,-1.3496,-1.3508,-1.3507,-1.3506,-1.3505,-1.3599,-1.3603,-1.3607,0,0,0,0,0,0,0,0,0,0,0,0,0,-1.3319,-1.3245,-1.3402,-1.3422,-1.3424,-1.3493,-1.3495,-1.3496,-1.3509,-1.3507,-1.3506,-1.3505,-1.3598,-1.3603,-1.3608,-1.3665,0,0,-1.3623,-1.3625,0,0,0,0,0,0,0,0,-1.3315,-1.3325,-1.3418,-1.342,-1.3423,-1.3488,-1.3473,-1.3553,-1.3509,-1.3477,-1.3506,-1.3504,-1.3564,-1.3572,-1.3592,-1.3669,-1.3673,-1.3623,-1.3627,-1.3629,-1.363,0,0,0,0,0,0,0,-1.3309,-1.3321,-1.3439,-1.3419,-1.3423,-1.3426,-1.3436,-1.3488,-1.3527,-1.3479,-1.348,-1.3491,-1.3566,-1.3587,-1.3594,-1.3674,-1.3623,-1.3628,-1.3631,-1.3633,-1.3803,-1.3805,0,0,0,0,0,0,-1.33,-1.3317,-1.3436,-1.3441,-1.3365,-1.343,-1.3441,-1.3469,-1.3526,-1.3534,-1.3492,-1.3491,-1.3579,-1.3588,-1.3598,-1.3668,-1.3629,-1.3633,-1.3636,-1.3802,-1.3804,-1.3805,0,0,0,0,0,0,-1.3297,-1.3311,-1.3432,-1.338,-1.3395,-1.3434,-1.3465,-1.3471,-1.3493,-1.3536,-1.3543,-1.3507,-1.3579,-1.3591,-1.3648,-1.3671,-1.3636,-1.364,-1.38,-1.3802,-1.3804,-1.3809,0,0,0,0,0,0,-1.3292,-1.3309,-1.3331,-1.338,-1.3398,-1.348,-1.3467,-1.3474,-1.3501,-1.3501,-1.3551,-1.3558,-1.3578,-1.364,-1.3653,-1.3678,-1.3644,-1.3798,-1.3801,-1.3804,-1.3807,-1.3811,-1.3815,0,0,0,0,0,-1.3286,-1.3329,-1.3332,-1.3346,-1.3426,-1.3482,-1.3492,-1.3514,-1.3503,-1.3525,-1.3553,-1.3557,-1.3667,-1.3646,-1.366,-1.3687,-1.3797,-1.38,-1.3803,-1.3805,-1.381,-1.3815,0,0,0,0,0,0,-1.3282,-1.3335,-1.334,-1.3399,-1.3436,-1.3483,-1.3512,-1.3518,-1.3559,-1.3557,-1.3583,-1.3594,-1.3651,-1.3675,-1.365,-1.3745,-1.3731,-1.3737,-1.3727,-1.3732,-1.3736,-1.3729,-1.3648,0,0,0,0,0,-1.3288,-1.3328,-1.3373,-1.3421,-1.3439,-1.3473,-1.3498,-1.3511,-1.3551,-1.3566,-1.3598,-1.3636,-1.368,-1.3707,-1.375,-1.3811,-1.3822,-1.3836,-1.384,-1.3843,-1.3848,-1.3882,-1.3889,-1.3817,-1.3817,-1.3817,0,0,-1.33,-1.3335,-1.3359,-1.3421,-1.3451,-1.3493,-1.3486,-1.353,-1.3561,-1.3573,-1.3629,-1.3654,-1.3698,-1.3758,-1.3785,-1.3779,-1.3871,-1.3847,-1.3849,-1.3853,-1.3887,-1.3894,-1.39,-1.3819,-1.3819,-1.3818,0,0,-1.3345,-1.3375,-1.3418,-1.3448,-1.3494,-1.3516,-1.3526,-1.3573,-1.359,-1.3646,-1.3656,-1.3694,-1.3768,-1.38,-1.3825,-1.3882,-1.3887,-1.3895,-1.3916,-1.3949,-1.3955,-1.396,-1.398,-1.3987,-1.39,-1.39,-1.39,0,-1.3355,-1.3417,-1.344,-1.3484,-1.3511,-1.3524,-1.3568,-1.3597,-1.3654,-1.3673,-1.3665,-1.3758,-1.3789,-1.3856,-1.387,-1.389,-1.3904,-1.3889,-1.3952,-1.3957,-1.3963,-1.3982,-1.399,-1.3901,-1.3901,-1.3901,-1.3901,0,-1.3428,-1.3471,-1.3501,-1.3555,-1.3586,-1.3631,-1.366,-1.3689,-1.37,-1.3723,-1.3781,-1.3818,-1.3868,-1.3885,-1.3897,-1.3954,-1.3949,-1.3946,-1.3933,-1.397,-1.3989,-1.3996,-1.3902,-1.3902,-1.3902,-1.3901,0,0,-1.3471,-1.3537,-1.3548,-1.3573,-1.3624,-1.3659,-1.3704,-1.3752,-1.3777,-1.3816,-1.3854,-1.3917,-1.3915,-1.3944,-1.396,-1.3989,-1.4032,-1.3983,-1.3984,-1.399,-1.4097,-1.4098,-1.4107,-1.4036,-1.4037,-1.4038,-1.4093,0,-1.3521,-1.3601,-1.3623,-1.3691,-1.3732,-1.3744,-1.3784,-1.382,-1.3843,-1.3881,-1.3907,-1.3951,-1.3945,-1.3962,-1.3992,-1.402,-1.4053,-1.4016,-1.4072,-1.4074,-1.406,-1.4117,-1.4118,-1.4168,-1.4101,-1.4102,-1.4103,0,-1.359,-1.363,-1.3702,-1.3748,-1.3766,-1.3801,-1.3848,-1.3884,-1.3926,-1.394,-1.3973,-1.3986,-1.4034,-1.4018,-1.4085,-1.4059,-1.4084,-1.4101,-1.4104,-1.4109,-1.409,-1.4123,-1.4185,-1.4192,-1.4115,-1.4114,-1.4113,0,-1.3614,-1.3686,-1.3739,-1.376,-1.3815,-1.3839,-1.3864,-1.3904,-1.3932,-1.3973,-1.3991,-1.4038,-1.4063,-1.4099,-1.4124,-1.411,-1.4189,-1.4175,-1.4203,-1.4202,-1.4218,-1.4217,-1.4284,-1.4235,-1.4234,-1.4234,-1.4234,0,-1.3667,-1.3711,-1.375,-1.3782,-1.3832,-1.3857,-1.3905,-1.393,-1.3966,-1.4004,-1.4018,-1.4053,-1.4084,-1.4124,-1.4144,-1.4197,-1.4208,-1.4222,-1.4226,-1.422,-1.4218,-1.4236,-1.4233,-1.4236,-1.4236,-1.4235,-1.4235,0,-1.3702,-1.373,-1.3788,-1.3836,-1.3849,-1.3883,-1.3925,-1.3957,-1.398,-1.4028,-1.4041,-1.4078,-1.4125,-1.4154,-1.4214,-1.4228,-1.4286,-1.4289,-1.4271,-1.4274,-1.43,-1.4297,-1.438,-1.4392,-1.4335,-1.4335,-1.4336,0,-1.3734,-1.3767,-1.3819,-1.3845,-1.3869,-1.3911,-1.394,-1.3966,-1.3996,-1.4046,-1.4072,-1.412,-1.416,-1.4236,-1.4269,-1.4315,-1.432,-1.4346,-1.4327,-1.4319,-1.432,-1.4317,-1.4321,-1.4348,-1.4349,-1.4349,-1.435,0,-1.3787,-1.38,-1.384,-1.3885,-1.3919,-1.3956,-1.3994,-1.4014,-1.4047,-1.408,-1.4128,-1.4159,-1.4221,-1.4269,-1.4318,-1.4344,-1.4352,-1.4356,-1.4364,-1.4358,-1.4346,-1.4353,-1.428,-1.4353,-1.4353,-1.4353,-1.4353,-1.4352,-1.3821,-1.3852,-1.3893,-1.3938,-1.3968,-1.4003,-1.4035,-1.4063,-1.4104,-1.4156,-1.4169,-1.422,-1.4262,-1.4329,-1.4356,-1.4396,-1.4392,-1.4405,-1.4408,-1.4411,-1.4411,-1.434,-1.4405,-1.4405,-1.4405,-1.4405,-1.4405,0,-1.3875,-1.3902,-1.3943,-1.3995,-1.403,-1.4035,-1.4077,-1.4106,-1.415,-1.4188,-1.4227,-1.4283,-1.433,-1.4367,-1.4415,-1.444,-1.4445,-1.4452,-1.445,-1.4456,-1.4412,-1.4399,-1.4447,-1.4447,-1.4447,-1.4447,-1.4447,-1.4447,-1.3907,-1.3959,-1.3977,-1.4044,-1.4072,-1.4121,-1.4144,-1.4177,-1.4207,-1.4268,-1.4307,-1.4331,-1.4368,-1.4419,-1.4463,-1.4472,-1.4489,-1.4495,-1.4505,-1.4464,-1.4459,-1.4455,-1.4443,-1.4499,-1.4499,-1.4546,-1.4546,-1.4546]},{"header":{"parameterUnit":"m.s-1","parameterCategory":1,"la1":30.2991,"la2":30.254,"lo1":-89.0895,"lo2":-89.0444,"dy":0.0017,"dx":0.0017,"nx":28,"ny":28,"refTime":"2024-11-26T09:00:00:Z","depth":0,"parameterNumber":3,"parameterNumberName":"V-component_of_WINDS"},"data":[0,0,0,0,0,0,0,0,0,0,0,0,0,0,0,0,0,0,0,0,0,0,0,0,0,0,0,0,0,0,0,0,0,0,0,0,0,0,0,0,0,0,0,0,0,0,0,0,0,0,0,0,0,0,0,0,0,0,-0.4713,-0.4713,0,-0.4669,-0.4669,-0.4668,-0.4654,-0.4654,-0.4654,-0.4654,-0.4605,-0.4604,-0.4603,0,0,0,0,0,0,0,0,0,0,0,0,0,-0.478,-0.4779,-0.4713,-0.4713,-0.4712,-0.4669,-0.4669,-0.4668,-0.4654,-0.4654,-0.4654,-0.4654,-0.4606,-0.4604,-0.4602,0,0,0,0,0,0,0,0,0,0,0,0,0,-0.4745,-0.4779,-0.4713,-0.47,-0.4698,-0.4669,-0.4669,-0.4668,-0.4653,-0.4654,-0.4654,-0.4654,-0.4607,-0.4604,-0.4602,-0.4583,0,0,-0.4595,-0.4594,0,0,0,0,0,0,0,0,-0.4747,-0.4743,-0.4702,-0.4701,-0.4699,-0.4667,-0.4674,-0.4639,-0.4653,-0.467,-0.4654,-0.4654,-0.4626,-0.4622,-0.4613,-0.458,-0.4578,-0.4595,-0.4594,-0.4593,-0.4592,0,0,0,0,0,0,0,-0.475,-0.4744,-0.4696,-0.4702,-0.47,-0.4694,-0.469,-0.4668,-0.4647,-0.4669,-0.4668,-0.4663,-0.4625,-0.4615,-0.4611,-0.4577,-0.4595,-0.4593,-0.4592,-0.4591,-0.4525,-0.4525,0,0,0,0,0,0,-0.4755,-0.4747,-0.4697,-0.4694,-0.4724,-0.4693,-0.4688,-0.4677,-0.4647,-0.4643,-0.4663,-0.4662,-0.4619,-0.4614,-0.461,-0.4584,-0.4593,-0.4591,-0.459,-0.4525,-0.4525,-0.4524,0,0,0,0,0,0,-0.4756,-0.4751,-0.4699,-0.472,-0.4713,-0.4692,-0.468,-0.4676,-0.4666,-0.4642,-0.4638,-0.4657,-0.4619,-0.4613,-0.4589,-0.4582,-0.459,-0.4588,-0.4526,-0.4525,-0.4525,-0.4532,0,0,0,0,0,0,-0.4758,-0.4751,-0.4745,-0.472,-0.4712,-0.4681,-0.4679,-0.4675,-0.4663,-0.4662,-0.4636,-0.4632,-0.4618,-0.4593,-0.4587,-0.4579,-0.4586,-0.4526,-0.4526,-0.4525,-0.4533,-0.4532,-0.4532,0,0,0,0,0,-0.4761,-0.4748,-0.4745,-0.4739,-0.4704,-0.468,-0.4675,-0.4662,-0.4663,-0.4655,-0.4639,-0.4633,-0.4584,-0.459,-0.4584,-0.4575,-0.4527,-0.4526,-0.4525,-0.4533,-0.4532,-0.4532,0,0,0,0,0,0,-0.4771,-0.4745,-0.474,-0.472,-0.4702,-0.4678,-0.4668,-0.4661,-0.4643,-0.4642,-0.4625,-0.4619,-0.4596,-0.4583,-0.4591,-0.4554,-0.4555,-0.4553,-0.4563,-0.4562,-0.4562,-0.4565,-0.4584,0,0,0,0,0,-0.4771,-0.4756,-0.4733,-0.4717,-0.4709,-0.469,-0.4679,-0.467,-0.4651,-0.4643,-0.4626,-0.4606,-0.4586,-0.4574,-0.4554,-0.4531,-0.4524,-0.4521,-0.4521,-0.4521,-0.4518,-0.4504,-0.4502,-0.4521,-0.4521,-0.4521,0,0,-0.4771,-0.4755,-0.4746,-0.4718,-0.4704,-0.4687,-0.4684,-0.4666,-0.4652,-0.464,-0.4617,-0.4603,-0.458,-0.4556,-0.4545,-0.4545,-0.4512,-0.4519,-0.4519,-0.4517,-0.4502,-0.4501,-0.4499,-0.4521,-0.4521,-0.4521,0,0,-0.4762,-0.4748,-0.4733,-0.4718,-0.4697,-0.4684,-0.4681,-0.4657,-0.4648,-0.4624,-0.4614,-0.4597,-0.4564,-0.4548,-0.4535,-0.4518,-0.4511,-0.4512,-0.4509,-0.4495,-0.4493,-0.4492,-0.4485,-0.4482,-0.4511,-0.4511,-0.4511,0,-0.4763,-0.4739,-0.4725,-0.4708,-0.4696,-0.4684,-0.4668,-0.4654,-0.4627,-0.4618,-0.4618,-0.4575,-0.4559,-0.4531,-0.4527,-0.4517,-0.4511,-0.4515,-0.4495,-0.4493,-0.4492,-0.4485,-0.4482,-0.4511,-0.4511,-0.4511,-0.4511,0,-0.4741,-0.4724,-0.4714,-0.4689,-0.4675,-0.4658,-0.4641,-0.4629,-0.462,-0.4607,-0.4583,-0.4563,-0.4539,-0.4531,-0.4523,-0.4501,-0.4501,-0.4499,-0.4499,-0.449,-0.4483,-0.448,-0.4511,-0.4511,-0.4511,-0.4511,0,0,-0.4737,-0.4705,-0.4701,-0.4689,-0.4664,-0.465,-0.4632,-0.4609,-0.4598,-0.4579,-0.4562,-0.4534,-0.4531,-0.4517,-0.4506,-0.4494,-0.448,-0.4492,-0.4491,-0.449,-0.4453,-0.4455,-0.4452,-0.4475,-0.4475,-0.4474,-0.4455,0,-0.4724,-0.4692,-0.4679,-0.4653,-0.4636,-0.4625,-0.4608,-0.459,-0.4577,-0.456,-0.4545,-0.4525,-0.4523,-0.4514,-0.4501,-0.4485,-0.4472,-0.4486,-0.4458,-0.4457,-0.4463,-0.4448,-0.445,-0.4433,-0.4452,-0.4451,-0.4451,0,-0.4704,-0.4686,-0.4658,-0.4635,-0.4627,-0.4613,-0.459,-0.4574,-0.4553,-0.4544,-0.4528,-0.4518,-0.4496,-0.4499,-0.4468,-0.4477,-0.4465,-0.4455,-0.4454,-0.445,-0.4453,-0.4443,-0.4427,-0.4424,-0.4447,-0.4447,-0.4448,0,-0.4703,-0.4671,-0.465,-0.4641,-0.4613,-0.4603,-0.459,-0.4569,-0.4556,-0.4536,-0.4527,-0.4504,-0.4491,-0.4473,-0.4456,-0.446,-0.4426,-0.4428,-0.4417,-0.4417,-0.441,-0.441,-0.4391,-0.4404,-0.4404,-0.4404,-0.4404,0,-0.4689,-0.4672,-0.4649,-0.4636,-0.4617,-0.4601,-0.4581,-0.4568,-0.4549,-0.4532,-0.4521,-0.4504,-0.4484,-0.4465,-0.4451,-0.4427,-0.4421,-0.4412,-0.4409,-0.4413,-0.4414,-0.4404,-0.4404,-0.4403,-0.4403,-0.4403,-0.4404,0,-0.4684,-0.4668,-0.4644,-0.462,-0.4613,-0.4599,-0.4577,-0.4563,-0.455,-0.4528,-0.4522,-0.45,-0.4477,-0.4459,-0.4428,-0.4419,-0.4393,-0.4389,-0.44,-0.4398,-0.4388,-0.4389,-0.436,-0.4355,-0.4373,-0.4373,-0.4372,0,-0.4675,-0.4662,-0.4636,-0.4624,-0.4612,-0.4594,-0.458,-0.4564,-0.455,-0.4524,-0.4513,-0.4489,-0.4469,-0.4431,-0.4412,-0.4388,-0.4383,-0.4375,-0.4379,-0.4383,-0.4381,-0.4382,-0.438,-0.4374,-0.4374,-0.4374,-0.4374,0,-0.4662,-0.4655,-0.4636,-0.4615,-0.4599,-0.4581,-0.4563,-0.4554,-0.4534,-0.4518,-0.4495,-0.4479,-0.4448,-0.4424,-0.4398,-0.4383,-0.4374,-0.4372,-0.4368,-0.4372,-0.4378,-0.4373,-0.4397,-0.4373,-0.4373,-0.4373,-0.4373,-0.4373,-0.4654,-0.4641,-0.4621,-0.46,-0.4585,-0.4568,-0.4553,-0.4538,-0.4518,-0.4492,-0.4484,-0.4459,-0.4436,-0.44,-0.4385,-0.4365,-0.4364,-0.4359,-0.4357,-0.4356,-0.4355,-0.4382,-0.436,-0.436,-0.436,-0.436,-0.436,0,-0.4639,-0.4625,-0.4607,-0.4582,-0.4565,-0.456,-0.4539,-0.4525,-0.4503,-0.4484,-0.4464,-0.4436,-0.4412,-0.439,-0.4365,-0.4352,-0.4348,-0.4346,-0.4346,-0.4343,-0.4358,-0.4363,-0.435,-0.435,-0.435,-0.435,-0.435,-0.435,-0.4629,-0.4607,-0.4597,-0.4566,-0.4552,-0.4529,-0.4517,-0.4501,-0.4485,-0.4454,-0.4435,-0.4421,-0.44,-0.4372,-0.435,-0.4344,-0.4334,-0.4333,-0.4326,-0.4341,-0.4342,-0.4343,-0.4348,-0.4332,-0.4332,-0.4313,-0.4312,-0.4312]}]]